Location: Castellare
(42.4669°N, 9.4728°E)
Time: 03:26:44
(UTC+00:00)

Cosmos 1992 Rocket - Pass Details

Date: 17 February 2020
Orbit: 759 x 765 km, 74.0° (Epoch: 09 April)

Event Time Altitude Azimuth Distance (km) Brightness Sun altitude
Exits shadow 03:55:47 44° 350° (N) 1,047 4.6 -26.6°
Maximum altitude 03:57:27 79° 70° (ENE) 782 4.0 -26.3°
Drops below altitude 10° 04:02:39 10° 157° (SSE) 2,291 6.6 -25.4°
Sets 04:05:01 0° 159° (SSE) 3,211 7.4 -24.9°
